TimeCEST,TemperatureF,Dew PointF,Humidity,Sea Level PressureIn,VisibilityMPH,Wind Direction,Wind SpeedMPH,Gust SpeedMPH,PrecipitationIn,Events,Conditions,WindDirDegrees,DateUTC
12:20 AM,73.4,66.2,78,30.04,-9999.0,NNE,4.6,-,N/A,,Clear,20,2013-07-12 22:20:00
12:50 AM,73.4,66.2,78,30.04,-9999.0,NNE,3.5,-,N/A,,Clear,20,2013-07-12 22:50:00
1:20 AM,73.4,66.2,78,30.04,-9999.0,Variable,1.2,-,N/A,,Clear,0,2013-07-12 23:20:00
1:50 AM,73.4,66.2,78,30.04,5.0,Calm,Calm,-,N/A,,Unknown,0,2013-07-12 23:50:00
2:00 AM,73,67,75,30.04,5,North,1.2,,,,Mist,350,2013-07-13 00:00:00
2:20 AM,73.4,66.2,78,30.04,5.0,NE,2.3,-,N/A,,Unknown,40,2013-07-13 00:20:00
2:50 AM,71.6,66.2,83,30.04,5.0,ENE,2.3,-,N/A,,Unknown,60,2013-07-13 00:50:00
3:20 AM,71.6,66.2,83,30.04,5.0,Calm,Calm,-,N/A,,Unknown,0,2013-07-13 01:20:00
3:50 AM,71.6,66.2,83,30.04,5.0,Calm,Calm,-,N/A,,Partly Cloudy,0,2013-07-13 01:50:00
4:20 AM,71.6,66.2,83,30.04,5.0,Variable,2.3,-,N/A,,Partly Cloudy,0,2013-07-13 02:20:00
4:50 AM,71.6,66.2,83,30.04,5.0,NE,3.5,-,N/A,,Partly Cloudy,40,2013-07-13 02:50:00
5:20 AM,71.6,66.2,83,30.04,3.7,NE,2.3,-,N/A,,Mostly Cloudy,50,2013-07-13 03:20:00
5:50 AM,71.6,66.2,83,30.04,3.7,Calm,Calm,-,N/A,,Mostly Cloudy,0,2013-07-13 03:50:00
6:20 AM,71.6,66.2,83,30.04,5.0,NE,3.5,-,N/A,,Partly Cloudy,40,2013-07-13 04:20:00
6:50 AM,71.6,66.2,83,30.04,5.0,North,3.5,-,N/A,,Unknown,10,2013-07-13 04:50:00
7:20 AM,73.4,66.2,78,30.04,5.0,NNE,4.6,-,N/A,,Unknown,20,2013-07-13 05:20:00
7:50 AM,75.2,66.2,73,30.04,5.0,NNE,3.5,-,N/A,,Unknown,30,2013-07-13 05:50:00
8:00 AM,76,67,67,30.03,5,NE,3.5,,,,Mist,50,2013-07-13 06:00:00
8:20 AM,77.0,68.0,74,30.04,-9999.0,ENE,3.5,-,N/A,,Clear,60,2013-07-13 06:20:00
8:50 AM,78.8,68.0,69,30.04,-9999.0,Variable,2.3,-,N/A,,Clear,0,2013-07-13 06:50:00
9:20 AM,80.6,68.0,65,30.04,-9999.0,Variable,2.3,-,N/A,,Clear,0,2013-07-13 07:20:00
9:50 AM,80.6,68.0,65,30.04,-9999.0,Variable,2.3,-,N/A,,Clear,0,2013-07-13 07:50:00
10:20 AM,80.6,69.8,70,30.04,6.2,SW,5.8,-,N/A,,Partly Cloudy,220,2013-07-13 08:20:00
10:50 AM,82.4,69.8,66,30.04,6.2,South,5.8,-,N/A,,Partly Cloudy,170,2013-07-13 08:50:00
11:00 AM,81,69,58,30.04,6,South,13.4,,,,Scattered Clouds,180,2013-07-13 09:00:00
11:20 AM,80.6,69.8,70,30.04,6.2,SSW,6.9,-,N/A,,Scattered Clouds,200,2013-07-13 09:20:00
11:50 AM,84.2,71.6,66,30.04,6.2,South,5.8,-,N/A,,Scattered Clouds,170,2013-07-13 09:50:00
12:20 PM,82.4,71.6,70,30.04,6.2,South,9.2,-,N/A,,Scattered Clouds,190,2013-07-13 10:20:00
12:50 PM,82.4,71.6,70,30.04,6.2,South,10.4,-,N/A,,Partly Cloudy,190,2013-07-13 10:50:00
1:20 PM,82.4,71.6,70,30.04,6.2,South,12.7,-,N/A,,Partly Cloudy,190,2013-07-13 11:20:00
1:50 PM,82.4,71.6,70,30.01,6.2,South,12.7,-,N/A,,Partly Cloudy,190,2013-07-13 11:50:00
2:00 PM,83,71,59,30.02,6,South,11.5,,,,Scattered Clouds,190,2013-07-13 12:00:00
2:20 PM,82.4,69.8,66,30.01,6.2,SSW,11.5,-,N/A,,Partly Cloudy,200,2013-07-13 12:20:00
2:50 PM,84.2,69.8,62,30.01,6.2,South,10.4,-,N/A,,Partly Cloudy,190,2013-07-13 12:50:00
3:20 PM,84.2,69.8,62,30.01,6.2,South,9.2,-,N/A,,Partly Cloudy,180,2013-07-13 13:20:00
3:50 PM,86.0,59.0,40,30.01,6.2,West,13.8,-,N/A,,Partly Cloudy,280,2013-07-13 13:50:00
4:20 PM,86.0,57.2,37,30.04,-9999.0,West,13.8,-,N/A,,Clear,270,2013-07-13 14:20:00
4:50 PM,84.2,60.8,45,30.01,-9999.0,West,10.4,-,N/A,,Clear,270,2013-07-13 14:50:00
5:00 PM,85,62,37,30.01,6,West,17.9,,,,,260,2013-07-13 15:00:00
5:20 PM,86.0,62.6,45,30.01,-9999.0,West,12.7,-,N/A,,Clear,260,2013-07-13 15:20:00
5:50 PM,84.2,62.6,48,30.01,-9999.0,West,9.2,-,N/A,,Clear,280,2013-07-13 15:50:00
6:20 PM,84.2,66.2,55,30.01,-9999.0,West,6.9,-,N/A,,Clear,270,2013-07-13 16:20:00
7:20 PM,82.4,66.2,58,30.01,-9999.0,West,5.8,-,N/A,,Clear,270,2013-07-13 17:20:00
7:50 PM,80.6,66.2,61,30.01,-9999.0,WNW,6.9,-,N/A,,Clear,300,2013-07-13 17:50:00
8:00 PM,80,67,56,30.00,19,WNW,6.9,,,,,290,2013-07-13 18:00:00
8:20 PM,78.8,66.2,65,30.01,-9999.0,West,5.8,-,N/A,,Clear,270,2013-07-13 18:20:00
8:50 PM,78.8,68.0,69,30.01,-9999.0,West,6.9,-,N/A,,Clear,270,2013-07-13 18:50:00
9:20 PM,75.2,68.0,78,30.01,-9999.0,West,5.8,-,N/A,,Clear,260,2013-07-13 19:20:00
9:50 PM,77.0,68.0,74,30.04,-9999.0,Variable,1.2,-,N/A,,Clear,0,2013-07-13 19:50:00
10:20 PM,77.0,66.2,69,30.04,-9999.0,West,4.6,-,N/A,,Clear,260,2013-07-13 20:20:00
10:50 PM,77.0,66.2,69,30.04,-9999.0,West,4.6,-,N/A,,Clear,270,2013-07-13 20:50:00
11:00 PM,76,66,65,30.04,12,West,2.2,,,,,280,2013-07-13 21:00:00
11:20 PM,77.0,66.2,69,30.04,-9999.0,SW,3.5,-,N/A,,Clear,220,2013-07-13 21:20:00
11:50 PM,77.0,66.2,69,30.01,-9999.0,Calm,Calm,-,N/A,,Clear,0,2013-07-13 21:50:00